Weather Roundup
Issued by NWS

Home | Current Version | Previous Version | Text Only | Print | Product List | Glossary On
Versions: 1 2 3 4 5 6 7 8 9 10 11 12 13 14 15 16 17 18 19 20 21 22 23 24 25 26 27 28 29 30 31 32 33 34 35 36 37 38 39 40 41 42 43 44 45 46 47 48 49 50
000
NZUS93 KARX 222010
HRRWXR

CURRENT HOURLY OBSERVATIONS ACROSS
MUCH OF THE UPPER MISSISSIPPI VALLEY
NATIONAL WEATHER SERVICE LA CROSSE WI
300 PM CDT TUE APR 22 2014


...SOUTHEAST MINNESOTA...


CITY           SKY/WX    TMP DP  RH WIND       PRES   REMARKS
ROCHESTER      MOSUNNY   56  31  38 N17G24    30.08F
ROCHESTER/MAYO FAIR      54  25  32 NW18G25   30.07F
WINONA         SUNNY     55  28  35 NW14      30.05F
AUSTIN         MOSUNNY   55  30  38 N14G23    30.08S
ALBERT LEA     MOSUNNY   57  30  35 N13G20    30.08F
DODGE CENTER   MOSUNNY   57  27  30 N14G22    30.08F
PRESTON        MOSUNNY   55  31  39 N16G24    30.07S
OWATONNA       PTSUNNY   55  30  38 N17       30.08F
FARIBAULT      PTSUNNY   57  28  33 NW13G18   30.09F
$$

...ELSEWHERE IN MINNESOTA...


CITY           SKY/WX    TMP DP  RH WIND       PRES   REMARKS
MINNEAPOLIS    MOSUNNY   56  30  37 NW8G21    30.08F
INTNL FALLS    SUNNY     49  22  34 CALM      30.09F
DULUTH         MOSUNNY   50  24  36 NW5       30.07S
RED WING       SUNNY     57  27  30 N7G23     30.07F
REDWOOD FALLS  MOSUNNY   60  33  36 VRB5      30.07F
MANKATO        PTSUNNY   57  30  35 N10G16    30.09F
WORTHINGTON    SUNNY     61  28  29 S7        30.08F
FAIRMONT       SUNNY     61  30  31 NW7       30.09F
$$

...SOUTHWEST WISCONSIN...


CITY           SKY/WX    TMP DP  RH WIND       PRES   REMARKS
LA CROSSE      SUNNY     60  25  26 NW15G26   30.03F
PRAIRIE DU CHI MOSUNNY   57  24  27 NW15      30.04S
BOSCOBEL       MOSUNNY   60  24  25 NW15G21   30.03S
LONE ROCK      SUNNY     57  29  34 NW17G23   30.01S
PLATTEVILLE    SUNNY     57  26  30 N17G23    30.02S
FORT MC COY    SUNNY     56  22  26 NW20G28   30.04R
CAMP DOUGLAS   PTSUNNY   57  25  28 N8G25     30.01S
VIROQUA        FAIR      54  27  35 NW15G28   30.03R
WIS DELLS      SUNNY     54  24  30 NW12G22   30.00S
$$

...ELSEWHERE IN WISCONSIN...


CITY           SKY/WX    TMP DP  RH WIND       PRES   REMARKS
MILWAUKEE      PTSUNNY   57  30  35 NW13G24   29.96S
MADISON        PTSUNNY   57  24  28 NW14G25   29.99S
GREEN BAY      PTSUNNY   49  30  48 N15G30    29.99S
EAU CLAIRE     MOSUNNY   55  21  26 NW15G23   30.06S
BLACK RVR FLS  FAIR      56  22  26 NW14G23   30.04S
MEDFORD        MOSUNNY   49  26  41 NW16G22   30.02S
WAUSAU         SUNNY     49  23  36 NW16G24   30.00S
WIS RAPIDS     SUNNY     55  24  30 NW16G26   30.02S
MARSHFIELD     MOSUNNY   53  26  35 N16G24    30.02R
RICE LAKE      SUNNY     52  21  30 N15       30.08F
$$

...NORTHEAST IOWA...


CITY           SKY/WX    TMP DP  RH WIND       PRES   REMARKS
WATERLOO       SUNNY     60  32  34 N18G26    30.07F
DUBUQUE        MOSUNNY   58  29  33 NW18      30.02S
DECORAH        MOSUNNY   54  30  40 NW18G26   30.05S
MASON CITY     SUNNY     59  34  39 N15       30.09F
CHARLES CITY   SUNNY     55  36  47 N18G24    30.08F
OELWEIN        SUNNY    N/A N/A N/A N16G25    30.07S
$$

...ELSEWHERE IN IOWA...


CITY           SKY/WX    TMP DP  RH WIND       PRES   REMARKS
DES MOINES     MOSUNNY   65  30  27 N9        30.08F
IOWA CITY      SUNNY     61  31  32 NW18G26   30.05F
FORT DODGE     SUNNY     61  34  36 CALM      30.10F
MARSHALLTOWN   SUNNY     61  33  35 N15G25    30.07F
CEDAR RAPIDS   SUNNY     60  32  34 N16G23    30.04F
$$

...NORTHERN ILLINOIS...


CITY           SKY/WX    TMP DP  RH WIND       PRES   REMARKS
CHICAGO-OHARE  MOSUNNY   59  28  30 NW14G21   29.95S
DUPAGE         SUNNY     59  30  33 NW14      29.95F
CHICAGO-MIDWAY MOSUNNY   53  34  48 E13       29.96R
MOLINE         SUNNY     62  29  28 NW14G22   30.01S
ROCKFORD       MOSUNNY   61  27  27 NW14      29.98F
STERLING       SUNNY     63  36  36 N15       29.99S
PEORIA         SUNNY     64  30  27 N14G22    29.99F
$$

NOTE: "FAIR" INDICATES FEW OR NO CLOUDS BELOW 12,000 FEET WITH NO
SIGNIFICANT WEATHER AND/OR OBSTRUCTIONS TO VISIBILITY. WIND
SPEEDS ARE IN MILES-PER-HOUR.



USA.gov is the U.S. government's official web portal to all federal, state and local government web resources and services.